Location: Chèvreville
(49.1099°N, 2.8495°E)
Time: 13:21:47
(UTC+00:00)

BlueWalker 3 - Pass Details

Date: 25 January 2026
Orbit: 450 x 461 km, 53.2° (Epoch: 11 February)

Event Time Altitude Azimuth Distance (km) Brightness Sun altitude
Rises 18:11:33 0° 246° (WSW) 2,452 7.0 -15.8°
Reaches altitude 10° 18:13:40 10° 247° (WSW) 1,581 5.7 -16.2°
Maximum altitude 18:17:14 85° 334° (NNW) 458 1.6 -16.7°
Enters shadow 18:18:21 42° 61° (ENE) 660 2.0 -16.9°
